The Pas Airport
CYQD : now visible

Airfield :











YOU CAN JOIN US ON...

 
LOGIN :

Register | Disclaimer

   EN    FR    IT 

 









Legend :    VFR   Marginal VFR   IFR   Intensive IFR   Very Intensive IFR
Visi :
Ceiling :
>= 8 km
>= 3000ft
5 to 8 km
1000 to 3000 ft
1500m to 5 km
500 to 1000 ft
800 to 1500m
200 to 500 ft
< 800m
< 200 ft
Symbols :   Thunderstorms  Fog  Heavy snow  Heavy precipitations  Wind > 20 kt






- Airport Elevation : 887 ft
- IATA code : YQD


CYQD - The Pas

CURRENT METAR :
  • 172200Z AUTO 10005KT 9SM BKN091 BKN110 M23/M28 A2989 RMK SLP157

EXPIRED METARs :
  • 172100Z AUTO 11005KT 9SM FEW086 M23/M28 A2991 RMK SLP162
  • 172000Z AUTO 14005KT 9SM CLR M23/M28 A2990 RMK SLP161

TAF TAF CYQD
Valid from the 17 at 19:00 until the 18 at 07:00 UTC


171840Z 1719/1807 12006KT P6SM SCT080 BKN200
FM180000 10010KT P6SM SCT020 OVC060
TEMPO 1800/1803 2SM -SN BKN015 OVC040
FM180300 08012KT 3SM -SN OVC025
TEMPO 1803/1807 1SM -SN OVC012 RMK FCST BASED ON AUTO OBS. NXT FCST BY 180100Z
CZWG FIR / North America



MET'MAP, your aeronautical weather chart ! - Copyright ORBIFLY December 2007 - Disclaimer

ORBIFLY MET'MAP TEAM :

Programming & Development : Alexandra Zaïnal
Concept & original design : Baudouin d'Aumeries
Assistance for programming : Marc-Olivier Méhu
Technical & hardware support : Manuel Goepfert

Contact : metmap@orbifly.com




SOURCES & CREDITS :

   NOAA       Earth
Advisory